Flag for France Weather past 2 weeks in Limoges, France

Now
57 °F

Dense fog.


Feels Like: 57 °F
Forecast: 56 / 77 °F
Wind: 2 mph from Northeast

Location: Limoges Airport

Current Time: Jul 26, 2014 at 5:22:14 AM

Latest Report: Jul 26, 2014 at 5:00 AM


Visibility: 1 mi

Pressure: 29.98 "Hg

Humidity: 100%

Dew point: 57 °F

Location of LimogesLocation

Historic Weather in Limoges — Graph

°F

Limoges temperature yesterday

Maximum temperature yesterday: 81 °F (at 12:30 PM)
Minimum temperature yesterday: 63 °F (at 10:00 PM)
Average temperature yesterday: 69 °F

Past Weeks' High & Low Weather Summary

 TemperatureHumidityPressure
High90 °F (Jul 17, 3:00 PM)100% (Jul 13, 6:30 AM)30.18 "Hg (Jul 13, 6:30 AM)
Low55 °F (Jul 11, 4:30 AM)27% (Jul 17, 5:00 PM)29.80 "Hg (Jul 18, 10:30 PM)
Average68 °F72%30.03 "Hg
* Reported Jul 11 4:00 AM — Jul 26 4:00 AM, Limoges, Weather by CustomWeather, © 2014

Note: Actual official high and low records may vary slightly from our data, if they occured in-between our weather recording intervals... More about our weather records

Advertising

Limoges weather history for previous 24 hours

 ConditionsComfort  
Time TempWeatherWind HumidityBarometerVisibility
4:00 AM
Jul 26
59 °FFog.2 mph94%30.01 "Hg0 mi
3:30 AM59 °FFog.No wind94%30.01 "Hg0 mi
3:00 AM61 °FFog.No wind94%30.01 "Hg0 mi
2:30 AM61 °FFog.2 mph94%30.01 "Hg3 mi
2:00 AM61 °FFog.No wind94%30.01 "Hg3 mi
1:30 AM61 °FClear.No wind94%30.01 "HgN/A
1:00 AM61 °FClear.No wind94%30.01 "HgN/A
12:30 AM63 °FClear.No wind77%30.01 "HgN/A
12:00 AM63 °FClear.3 mph77%30.01 "HgN/A
11:30 PM
Jul 25
63 °FClear.3 mph83%29.98 "HgN/A
11:00 PM63 °FClear.3 mph83%29.98 "HgN/A
10:30 PM63 °FClear.5 mph77%29.98 "HgN/A
10:00 PM63 °FClear.2 mph77%29.98 "HgN/A
9:30 PM64 °FClear.3 mph78%29.98 "HgN/A
9:00 PM66 °FClear.5 mph73%29.98 "HgN/A
8:30 PM66 °FClear.3 mph78%29.98 "HgN/A
8:00 PM66 °FClear.5 mph73%29.98 "HgN/A
7:30 PM66 °FClear.7 mph73%29.98 "HgN/A
7:00 PM68 °FPartly sunny.8 mph69%29.95 "HgN/A
6:30 PM68 °FClear.5 mph69%29.95 "HgN/A
6:00 PM66 °FClear.7 mph73%29.95 "HgN/A
5:30 PM66 °FMild.8 mph73%29.92 "HgN/A
5:00 PM66 °FRain. Broken clouds.5 mph83%29.95 "HgN/A
4:30 PM68 °FPartly sunny.3 mph69%29.95 "HgN/A
4:00 PM68 °FBroken clouds.6 mph69%29.95 "HgN/A
3:30 PM68 °FThundershowers. Partly sunny.10 mph78%29.95 "HgN/A
3:00 PM68 °FThundershowers. Cloudy.3 mph73%29.95 "HgN/A
2:30 PM68 °FLight rain. Broken clouds.9 mph73%29.92 "HgN/A
2:00 PM72 °FThunderstorms. Broken clouds.9 mph78%29.92 "HgN/A
1:30 PM75 °FThundershowers. Cloudy.5 mph69%29.92 "HgN/A
1:00 PM77 °FPassing clouds.5 mph57%29.92 "HgN/A
12:30 PM81 °FClear.2 mph54%29.95 "HgN/A
12:00 PM79 °FClear.3 mph54%29.95 "HgN/A
11:30 AM77 °FClear.2 mph57%29.95 "HgN/A
11:00 AM75 °FClear.3 mph61%29.92 "HgN/A
10:30 AM73 °FClear.3 mph61%29.92 "HgN/A
10:00 AM73 °FClear.2 mph61%29.92 "HgN/A
9:30 AM70 °FClear.3 mph69%29.92 "HgN/A
9:00 AM68 °FClear.5 mph73%29.92 "HgN/A
8:30 AM66 °FClear.3 mph78%29.92 "HgN/A
8:00 AM64 °FClear.5 mph83%29.92 "HgN/A
7:30 AM64 °FClear.3 mph78%29.92 "HgN/A
7:00 AM64 °FClear.2 mph83%29.92 "HgN/A
6:30 AM64 °FClear.5 mph83%29.92 "HgN/A
6:00 AM64 °FClear.3 mph83%29.92 "HgN/A
5:30 AM64 °FClear.3 mph83%29.92 "HgN/A
Weather by CustomWeather, © 2014

See weather overviewHow to use our weather pages